Zurück zum Katalog

STARLINK-30410

AktivKommunikationVLEO
NORAD 57841·PAYLOAD·🇺🇸 United States

Gestartet Sep 12, 2023 von Vandenberg Space Force Base

Loading…

Nächste Überflüge (nächste 24 Stunden)

TLE

AktuellSource: CelesTrak SupGP

Epoche: Sep 14, 2026, 21:42 UTC

1 57841C 23141B   26257.90465278 -.00052891  00000+0 -17012-2 0  2575
2 57841  53.1582 123.7258 0001356  88.5579   7.1844 15.31721688    13

Verfolge STARLINK-30410 in Echtzeit mit AllMySat

Download on the App Store